EST,Max TemperatureF,Mean TemperatureF,Min TemperatureF,Max Dew PointF,MeanDew PointF,Min DewpointF,Max Humidity, Mean Humidity, Min Humidity, Max Sea Level PressureIn, Mean Sea Level PressureIn, Min Sea Level PressureIn, Max VisibilityMiles, Mean VisibilityMiles, Min VisibilityMiles, Max Wind SpeedMPH, Mean Wind SpeedMPH, Max Gust SpeedMPH,PrecipitationIn, CloudCover, Events, WindDirDegrees
2012-12-1,27,24,20,26,20,7,92,69,45,30.65,30.56,30.48,10,4,1,5,0,7,0.05,8,Snow,-1
2012-12-2,39,33,27,37,31,25,100,96,92,30.49,30.23,30.00,10,3,0,8,1,12,0.09,8,Fog-Rain,290
2012-12-3,51,40,29,41,34,27,100,78,56,30.31,30.15,29.99,10,5,0,16,3,22,0.00,6,Fog,301
2012-12-4,50,39,28,48,35,28,100,95,89,30.31,30.21,29.91,9,3,0,7,1,10,0.03,8,Fog-Rain,222
2012-12-5,51,40,29,50,35,11,100,72,43,30.20,29.95,29.83,10,7,1,18,6,31,0.19,8,Rain-Snow,308
2012-12-6,37,30,22,18,15,12,84,62,40,30.37,30.30,30.22,10,10,8,16,2,22,0.00,2,,330
2012-12-7,35,28,20,32,27,17,100,80,59,30.27,30.10,30.03,10,4,0,8,1,10,0.10,6,Fog-Rain-Snow,192
2012-12-8,37,34,31,36,33,30,100,96,92,30.05,29.95,29.86,4,1,0,3,0,5,0.10,8,Fog-Rain,110
2012-12-9,44,37,29,36,30,22,100,70,40,30.30,30.17,29.99,10,8,0,13,2,17,0.04,4,Fog-Rain,343
2012-12-10,46,39,32,41,34,30,100,86,71,30.13,29.80,29.50,10,3,0,9,1,15,0.62,8,Fog-Rain,189
2012-12-11,44,37,30,36,27,17,92,73,54,30.18,29.87,29.61,10,10,10,14,6,21,T,7,,299
2012-12-12,41,32,22,22,19,16,88,66,44,30.43,30.33,30.19,10,10,7,15,3,21,0.00,3,,278
2012-12-13,40,29,18,24,20,15,92,70,48,30.48,30.41,30.29,10,9,6,7,1,9,0.00,1,,167
2012-12-14,44,31,17,25,21,13,92,66,39,30.27,30.17,30.10,10,8,5,8,3,12,0.00,3,,296
2012-12-15,39,30,21,25,17,6,75,54,32,30.35,30.30,30.20,10,10,8,10,2,14,0.00,3,,359
2012-12-16,27,25,22,23,19,13,88,72,55,30.31,30.19,30.11,10,4,1,5,2,7,0.14,8,Rain-Snow,137
2012-12-17,34,30,25,31,27,21,100,92,84,30.12,29.99,29.85,7,3,1,5,0,7,0.27,8,Rain-Snow,-1
2012-12-18,38,35,32,37,34,30,100,95,89,29.81,29.54,29.45,10,2,0,9,1,15,0.67,8,Fog-Rain,67
2012-12-19,40,37,33,34,29,24,92,76,59,30.09,29.76,29.47,10,10,3,16,6,24,0.00,8,,294
2012-12-20,36,31,26,28,26,24,92,78,64,30.24,30.12,29.97,10,10,2,10,2,15,T,6,Snow,333
2012-12-21,48,40,32,45,32,26,93,79,64,29.98,29.51,28.98,10,5,0,21,5,37,0.96,8,Fog-Rain-Snow,147
2012-12-22,37,31,24,27,18,9,75,63,50,29.68,29.38,29.16,10,9,2,24,10,35,T,8,Snow,255
2012-12-23,36,30,24,20,14,8,63,52,40,29.83,29.78,29.70,10,10,10,21,7,31,0.00,3,,266
2012-12-24,33,28,22,22,14,10,68,55,41,30.08,30.01,29.83,10,10,8,17,5,28,0.00,0,,282
2012-12-25,32,24,15,19,16,9,88,75,62,30.31,30.10,30.01,10,8,2,6,2,10,0.01,5,Snow,343
2012-12-26,28,19,10,24,12,6,83,67,50,30.38,30.22,29.98,10,8,0,9,3,14,0.11,2,Fog-Snow,54
2012-12-27,33,28,23,30,25,17,92,83,74,29.93,29.63,29.47,10,3,0,16,7,24,0.59,8,Fog-Snow,360
2012-12-28,30,24,18,21,18,15,92,78,63,30.04,29.94,29.76,10,7,0,15,5,24,0.01,6,Snow,285
2012-12-29,24,18,12,20,17,8,92,86,80,30.04,29.79,29.53,10,3,0,6,0,7,0.19,7,Fog-Snow,120
2012-12-30,24,20,15,21,11,3,88,71,54,30.07,29.75,29.52,10,8,2,23,10,32,0.01,4,Snow,300
2012-12-31,33,23,13,21,15,5,75,66,56,30.04,29.93,29.72,10,10,2,16,4,23,0.00,6,,241